weather.gov     
National Weather Service

Regional Weather Roundup
NWS Homepage
This page is being discontinued on March 12, 2014.
The same data is available at this site. Please update your bookmarks.
Thank you, and we apologize for the inconvenience.
Please send an email to SR-SRH.Webmaster@noaa.gov with any concerns.


Current Version
Previous Version:    01  02  03  04  05  06  07  08  09  10  11  12  13  14  15  16  17  18  19  20  21  22  23  24  25  26  27  28  29  30  
   31  32  33  34  35  36  37  38  39  40  41  42  43  44  45  46  47  48  49  50  51  52  53  54  55  56  57  58  59  60  
[Printable]
848
ASUS44 KSJT 202310
RWRSJT
WEST CENTRAL TEXAS REGIONAL WEATHER ROUNDUP
NATIONAL WEATHER SERVICE SAN ANGELO TX
600 PM CDT MON OCT 20 2014

NOTE: "FAIR" INDICATES FEW OR NO CLOUDS BELOW 12,000 FEET WITH NO
SIGNIFICANT WEATHER AND/OR OBSTRUCTIONS TO VISIBILITY.

TXZ049-054-064>066-071>073-076>078-098-099-113-114-127-128-139-140-
154-155-168>170-210000
...LOCATIONS ACROSS WEST CENTRAL TEXAS...

CITY           SKY/WX    TMP DP  RH WIND       PRES   REMARKS
SAN ANGELO     MOSUNNY   80  52  37 E12       30.01S
ABILENE        MOSUNNY   79  53  40 SE8       30.02S
DYESS AFB      MOSUNNY   80  56  42 E8        30.01S
JUNCTION       SUNNY     78  53  41 E7        30.01S
SWEETWATER     PTSUNNY   78  52  41 E9        30.06S
BROWNWOOD      SUNNY     77  55  47 SE5       30.02S
COLEMAN        CLEAR     78  57  48 E7        30.03S
SONORA         MOSUNNY   79  48  34 E8        30.05S
OZONA          FAIR      79  50  36 E8        30.04S
BRADY          MOSUNNY   79  54  41 NE8       30.02S
$$

TEXAS PANHANDLE/OKLAHOMA PANHANDLE

CITY           SKY/WX    TMP DP  RH WIND       PRES   REMARKS
AMARILLO       SUNNY     77  52  41 NE6       30.07S
BORGER         SUNNY     79  49  34 NE5       30.05F
CANADIAN       SUNNY     80  53  39 E3        30.02S
DALHART        SUNNY     75  45  34 NE8       30.10F
DUMAS          CLEAR     77  48  36 NE6       30.08S
GUYMON         NOT AVBL
HEREFORD       PTCLDY    71  55  57 CALM      30.08S
PAMPA          CLEAR     76  49  39 NE3       30.07S
PERRYTON       SUNNY     75  52  45 E8        30.06S
$$

SOUTHERN PANHANDLE/SOUTH PLAINS/ROLLING PLAINS

CITY           SKY/WX    TMP DP  RH WIND       PRES   REMARKS
LUBBOCK        MOSUNNY   74  53  48 SE10      30.06S
SNYDER         MOSUNNY   77  55  45 SE7       30.04S
CHILDRESS      SUNNY     83  53  35 SE7       30.01S
SEMINOLE       MOCLDY    73  51  46 SE14      30.07S
$$

PERMIAN BASIN

CITY           SKY/WX    TMP DP  RH WIND       PRES   REMARKS
MIDLAND        CLOUDY    76  53  44 E13       30.03F
ODESSA         CLOUDY    74  51  44 SE12      30.04F
WINK           LGT RAIN  67  64  90 SW5       30.03R
$$

FAR WEST/SOUTHWEST MOUNTAINS/TRANS PECOS

CITY           SKY/WX    TMP DP  RH WIND       PRES   REMARKS
ALPINE         CLOUDY    61  55  82 E6        30.15S
DRYDEN           N/A     74  61  63 SE12      29.99S
EL PASO        PTSUNNY   72  51  47 SE10      30.00F
FORT STOCKTON  CLOUDY    68  61  78 SE8       30.04F
GUADALUPE PASS CLOUDY    59  54  83 E13       30.14R
MARFA          CLOUDY    61  55  82 NE13      30.11S
PECOS          LGT RAIN  63  61  93 NE5       30.03F
$$

DALLAS/FORT WORTH METROPLEX

CITY           SKY/WX    TMP DP  RH WIND       PRES   REMARKS
DFW AIRPORT    MOCLDY    80  59  48 SE6       30.00S
FTW MEACHAM    PTCLDY    81  57  43 SE9       30.00S
DAL-EXECUTIVE  PTCLDY    80  58  46 SE8       30.01S
GRAND PRAIRIE  CLEAR     81  59  47 MISG      30.02S
ADDISON        PTCLDY    79  57  47 CALM      30.01F
MESQUITE       CLEAR     79  57  47 E3        30.01F
LANCASTER      PTCLDY    78  56  45 E6        30.02S
$$

NORTH CENTRAL TEXAS

CITY           SKY/WX    TMP DP  RH WIND       PRES   REMARKS
SHRMAN/DENISON CLEAR     79  62  55 CALM      30.02S
GAINESVILLE    CLEAR     78  61  54 MISG      30.03S HAZE
BRIDGEPORT     PTCLDY    80  59  48 E3        30.02S
DENTON         CLEAR     79  58  48 E7        30.00S
WAXAHACHIE     PTCLDY    79  58  48 E3        30.02S
GRANBURY       CLEAR     81  56  42 E6        30.02S
$$

WESTERN NORTH TEXAS

CITY           SKY/WX    TMP DP  RH WIND       PRES   REMARKS
WICHITA FALLS  PTCLDY    78  59  51 S8        29.99S
VERNON         PTCLDY    84  54  34 SE7       30.00S
BRECKENRIDGE   CLEAR     81  55  41 SE5       30.00F HAZE
COMANCHE       SUNNY     79  57  48 SE3       30.02S
$$

CENTRAL AND SOUTH CENTRAL TEXAS

CITY           SKY/WX    TMP DP  RH WIND       PRES   REMARKS
AUSTIN/BERGSTM PTSUNNY   77  59  53 E8        29.99S
WACO           CLEAR     79  58  48 E5        30.00S
HILLSBORO      CLEAR     80  56  43 SE6       30.01S
TEMPLE         PTCLDY    77  55  47 E8        30.00S
KILLEEN-GRAY   PTSUNNY   79  55  44 E7        30.00F
FORT HOOD      MOSUNNY   80  58  46 NE5       30.00F
GEORGETOWN     SUNNY     81  57  44 MISG      30.00S
LAGO VISTA     FAIR      78  57  48 E6        30.02S
SAN MARCOS     SUNNY     79  55  44 E13       30.00S
NEW BRAUNFELS  PTSUNNY   81  57  43 NE13      29.97F
RANDOLPH AFB   PTSUNNY   80  57  46 E9        29.98S
SAN ANTONIO    PTSUNNY   81  58  45 E12       29.98S
STINSON        MOSUNNY   83  57  41 E7        29.95F
PLEASANTON     NOT AVBL
LA GRANGE      MOSUNNY   80  63  57 NE3       29.97S
GIDDINGS       PTCLDY    78  60  53 E7        30.03S
$$

EAST TEXAS

CITY           SKY/WX    TMP DP  RH WIND       PRES   REMARKS
PARIS          CLEAR     77  57  50 SE3       30.03S
CLARKSVILLE    NOT AVBL
TYLER          CLEAR     78  54  43 NE6       30.02S
LONGVIEW       CLEAR     76  54  46 CALM      30.02S
PALESTINE      PTCLDY    77  59  54 NE3       30.03S
NACOGDOCHES    PTCLDY    75  57  53 CALM      30.03S
$$

TEXAS HILL COUNTRY AND EDWARDS PLATEAU

CITY           SKY/WX    TMP DP  RH WIND       PRES   REMARKS
LLANO          PTCLDY    79  57  47 CALM      30.03F
HORSESHOE BAY  FAIR      77  56  48 CALM      30.01S
KERRVILLE      PTSUNNY   76  59  53 E6        30.02S
FREDERICKSBRG  MOSUNNY   75  56  51 SE6       30.02S
ROCKSPRINGS    MOCLDY    75  52  43 E7        30.04F
HONDO          PTSUNNY   78  55  44 E9        29.99S
UVALDE         MOCLDY    81  57  43 SE7       29.97S
DEL RIO        PTSUNNY   79  63  57 S7        29.96S
$$

SOUTHEAST TEXAS

CITY           SKY/WX    TMP DP  RH WIND       PRES   REMARKS
COLLEGE STN    CLEAR     78  59  51 NE7       30.00S
CALDWELL       PTCLDY    79  57  47 CALM      30.03S
CROCKETT       CLEAR     79  63  57 NE6       30.05R
BRENHAM        PTCLDY    79  61  54 NE5       30.00S
HUNTSVILLE     CLEAR     78  59  51 E3        30.00S
CONROE         CLEAR     77  59  53 CALM      30.00S
HOUSTON BUSH   PTCLDY    78  58  49 NE6       29.99S
HOUSTON HOBBY  PTCLDY    78  62  57 E6        29.98S
PERLAND        CLEAR     80  62  54 E6        30.00S
WHARTON        PTCLDY    79  60  52 NE5       29.98S
$$

THE UPPER TEXAS COAST

CITY           SKY/WX    TMP DP  RH WIND       PRES   REMARKS
ORANGE         CLEAR     76  55  46 CALM      30.00S
PORT ARTHUR    CLEAR     78  57  48 N9        29.98S
GALVESTON      CLEAR     77  67  71 E7        29.99S
ANGLETON       CLEAR     76  67  73 E6        29.98
BAY CITY         N/A     80  65  61 E6        29.97S
$$

TEXAS COASTAL BEND, RIO GRANDE PLAINS DEEP SOUTH TEXAS

CITY           SKY/WX    TMP DP  RH WIND       PRES   REMARKS
VICTORIA       PTSUNNY   81  63  54 NE9       29.96S
BEEVILLE       MOCLDY    76  66  70 SE8       29.96S
ROCKPORT       CLOUDY    78  70  76 E13       29.95S
PORT ARANSAS   MOCLDY    75  70  83 E18G29    29.94F
PORT LAVACA    MOCLDY    79  70  73 SE12G20   29.96S
CORPUS CHRISTI PTSUNNY   74  70  87 N7        29.95S
KINGSVILLE NAS PTSUNNY   77  70  79 NE14G21   29.94S
COTULLA        PTSUNNY   85  61  44 SE20      29.94R
LAREDO         CLOUDY    79  67  66 E10       29.95R
BROWNSVILLE    MOSUNNY   83  69  62 NE9       29.89R
PORT ISABEL    SUNNY     82  69  64 NE10      29.89S
HEBBRONVILLE   CLOUDY    79  65  61 E13       29.95S
MCALLEN        CLOUDY    81  68  64 NE6       29.90R
WESLACO        CLOUDY    82  67  60 NE12      29.89R
FALFURRIAS     MOCLDY    78  68  72 E10       29.93S
EDINBURG       CLOUDY    77  69  75 NE12      29.91R
$$




U.S. Dept. of Commerce
NOAA National Weather Service
1325 East West Highway
Silver Spring, MD 20910
E-mail: w-nws.webmaster@noaa.gov
Page last modified: May 16, 2007
NATIONAL WEATHER SERVICE: for Safety, for Work, for Fun - FOR LIFE